OPS 4682 DEB, 58026

Orbit data source: Space-Track

OPS 4682 DEB, 58026 is space debris in LEO originally from a launch on Sat, 03 Apr 1965 UTC launched from the Air Force Western Test Range (AFWTR). Debris objects in space refer to the collection of defunct objects orbiting the Earth. Examples of debris include non-operational satellites, rocket bodies, and fragments generated from explosions, collisions, or faulty payload assembly.

Loading next visibility...
Identifier
58026, 1965-027HP
Orbit
LEO
Country
Flag of USUS
Related business
Manufacturer
Unknown
Mission
Spacecraft
Bus & Motor
Unknown
Mass
Unknown
Launch date (UTC)
1965-04-03 (61 years ago)
Launch vehicle
Unknown
Launch site
Air Force Western Test Range (AFWTR)
Object type
Payload
Rocket body
Debris
Shape & HBR
Unknown shape, 0.1 m
Radar Cross Section
Medium (>0.1 m² and <1 m²)

Expand to show TLE details & history
Last TLE update: 1 week ago

TLE from 1 week ago
0 OPS 4682 DEB
1 58026U 65027HP  26256.57916069 -.00000170  00000-0 -62193-3 0  9999
2 58026  90.2444   9.1472 0039056 297.3268  62.3878 12.95905102512656
Epoch: 2026-09-13T13:53Z
TLE epoch observation values (Epoch: 2026-09-13T13:53:59.483Z)
Latitude
-0.00004°
Longitude
168.07757°
Altitude
1,267.281 km
Speed
7.228 km/s
True Right ascension
00h 36m 35s
True Declination
0° 00' 00"
Sunlit
Object was in full shadow at epoch
Visualization orbit readout
Latitude
Unknown
Longitude
Unknown
Altitude
Unknown
Speed
Unknown
Apparent Right ascension
Unknown
Apparent Declination
Unknown
Sunlit
N/A
Visualization observer readout
Local Sidereal Time
12:11:34
Azimuth
Unknown
Elevation
Unknown
Doppler factor
Unknown
Orbital elements
Apogee altitude
1,305.197 km
Perigee altitude
1,245.415 km
Semi-major axis
7,653.443 km
Eccentricity
0.00391
Inclination
90.2444°
RAAN
9.1472°
Arg. of periapsis
297.3268°
True anomaly
62.78527°
Mean anomaly
62.3878°
Eccentric anomaly
62.58645°
Mean motion
3.24159 °/min
Orbital period
111.06 mins
BSTAR
-0.00062193
Loading maneuver chart data...
Computing Atmospheric mass density...
Loading historical data...
Loading historical data...
Loading historical data...
Loading historical data...
Loading historical data...
Loading historical data...
Loading historical data...

Documentation

Showing up to 5 results
|